CW4352 Weather Reports


Display with metric or nautical units.
time (UTC)temp
F
wind
direction
speed
MPH
gust
MPH
rain 1hr
in
rain 24hr
in
rain mn
in
humidity
%
barometer
mb
20260905181705 87 355 0.0 0.0 0.00 0.00 0.00 32 1011.2
20260905180704 88 355 0.0 1.0 0.00 0.00 0.00 31 1011.2
20260905174704 91 355 0.0 0.0 0.00 0.00 0.00 28 1011.1
20260905170204 93 355 1.0 3.0 0.00 0.00 0.00 25 1011.0
20260905164704 94 355 1.0 3.0 0.00 0.00 0.00 25 1011.0
20260905164205 94 355 1.0 3.0 0.00 0.00 0.00 24 1010.6
20260905163204 95 355 2.0 5.0 0.00 0.00 0.00 24 1010.6
20260905160705 96 29 1.0 3.0 0.00 0.00 0.00 24 1010.6
20260905160204 96 29 1.0 3.0 0.00 0.00 0.00 24 1010.6
20260905154704 96 39 1.0 3.0 0.00 0.00 0.00 23 1010.6
20260905153704 96 39 2.0 3.0 0.00 0.00 0.00 24 1010.6
20260905153205 96 39 1.0 3.0 0.00 0.00 0.00 24 1010.6
20260905151205 95 42 2.0 5.0 0.00 0.00 0.00 24 1010.8
20260905150704 95 40 3.0 5.0 0.00 0.00 0.00 24 1010.8
20260905144204 95 0 2.0 3.0 0.00 0.00 0.00 24 1011.1
20260905143204 96 48 2.0 5.0 0.00 0.00 0.00 24 1011.1
20260905141704 96 31 2.0 7.0 0.00 0.00 0.00 25 1011.3
20260905141205 96 15 2.0 3.0 0.00 0.00 0.00 24 1011.3
20260905140704 95 14 1.0 2.0 0.00 0.00 0.00 24 1011.3
20260905134704 94 11 1.0 3.0 0.00 0.00 0.00 25 1011.3
20260905133705 94 22 1.0 5.0 0.00 0.00 0.00 25 1011.6
20260905131705 93 3 2.0 5.0 0.00 0.00 0.00 25 1011.6
20260905131204 93 6 1.0 3.0 0.00 0.00 0.00 25 1011.6
20260905130704 93 30 2.0 6.0 0.00 0.00 0.00 25 1011.6
20260905124204 93 14 2.0 9.0 0.00 0.00 0.00 26 1012.1
20260905121204 92 49 1.0 6.0 0.00 0.00 0.00 25 1012.2
20260905120704 92 341 3.0 8.0 0.00 0.00 0.00 25 1012.2
20260905114704 92 23 2.0 5.0 0.00 0.00 0.00 26 1012.2
20260905114204 92 13 2.0 7.0 0.00 0.00 0.00 25 1012.2
20260905113704 92 23 2.0 3.0 0.00 0.00 0.00 25 1012.2
20260905113204 91 30 2.0 10.0 0.00 0.00 0.00 25 1012.2
20260905111204 90 30 2.0 5.0 0.00 0.00 0.00 25 1012.7
20260905110704 90 24 2.0 3.0 0.00 0.00 0.00 26 1012.7
20260905110205 90 19 2.0 5.0 0.00 0.00 0.00 25 1012.7
20260905104704 90 43 2.0 5.0 0.00 0.00 0.00 26 1012.7
20260905104204 90 45 2.0 5.0 0.00 0.00 0.00 26 1012.7
20260905103704 90 33 1.0 5.0 0.00 0.00 0.00 26 1012.7
20260905101204 89 17 2.0 3.0 0.00 0.00 0.00 25 1012.7
20260905100204 89 35 1.0 5.0 0.00 0.00 0.00 25 1012.7
20260905094204 88 32 2.0 5.0 0.00 0.00 0.00 28 1012.7
20260905093704 87 32 2.0 3.0 0.00 0.00 0.00 27 1012.7
20260905090204 85 24 1.0 3.0 0.00 0.00 0.00 30 1012.7
20260905084204 84 6 2.0 3.0 0.00 0.00 0.00 30 1012.6
20260905083705 84 17 1.0 3.0 0.00 0.00 0.00 32 1012.6
20260905083204 83 16 1.0 7.0 0.00 0.00 0.00 32 1012.6
20260905074204 82 331 2.0 3.0 0.00 0.00 0.00 34 1012.3
20260905071704 82 1 2.0 3.0 0.00 0.00 0.00 32 1012.1
20260905070204 80 340 0.0 2.0 0.00 0.00 0.00 38 1012.1
20260905064704 78 340 0.0 0.0 0.00 0.00 0.00 43 1012.1
20260905064204 77 340 0.0 0.0 0.00 0.00 0.00 43 1012.1
20260905060704 72 355 0.0 2.0 0.00 0.00 0.00 49 1011.5
20260905054703 70 355 0.0 3.0 0.00 0.00 0.00 51 1011.5
20260905053704 70 355 1.0 2.0 0.00 0.00 0.00 50 1011.5
20260905053204 69 355 1.0 3.0 0.00 0.00 0.00 50 1011.6
20260905051204 69 355 0.0 2.0 0.00 0.00 0.00 54 1011.2
20260905050704 69 355 0.0 2.0 0.00 0.00 0.00 53 1011.2
20260905043204 69 355 1.0 2.0 0.00 0.00 0.00 51 1011.1
20260905040204 69 355 0.0 2.0 0.00 0.00 0.00 53 1011.1
20260905034704 69 355 0.0 2.0 0.00 0.00 0.00 54 1011.1
20260905034203 69 355 0.0 2.0 0.00 0.00 0.00 54 1011.1
20260905033704 70 355 0.0 1.0 0.00 0.00 0.00 53 1011.1
20260905033204 70 355 0.0 1.0 0.00 0.00 0.00 52 1011.1
20260905031704 71 355 1.0 3.0 0.00 0.00 0.00 51 1011.1
20260905030704 71 355 1.0 3.0 0.00 0.00 0.00 50 1011.1
20260905030203 71 355 1.0 3.0 0.00 0.00 0.00 49 1011.1
20260905024704 72 355 2.0 3.0 0.00 0.00 0.00 48 1011.1
20260905014704 70 355 1.0 3.0 0.00 0.00 0.00 51 1011.4
20260905013204 71 355 1.0 3.0 0.00 0.00 0.00 52 1011.6
20260905011704 71 355 1.0 2.0 0.00 0.00 0.00 53 1011.6
20260905004704 72 355 1.0 3.0 0.00 0.00 0.00 50 1011.6
20260905004204 72 355 2.0 3.0 0.00 0.00 0.00 51 1011.6
20260905003704 72 355 1.0 3.0 0.00 0.00 0.00 51 1011.6
20260905003204 72 355 1.0 3.0 0.00 0.00 0.00 50 1011.6
20260905000704 75 355 0.0 2.0 0.00 0.00 0.00 48 1011.6
20260904234704 76 355 0.0 1.0 0.00 0.00 0.00 44 1011.7
20260904231705 77 5 1.0 3.0 0.00 0.00 0.00 40 1011.7
20260904231203 77 5 1.0 5.0 0.00 0.00 0.00 41 1011.7
20260904224704 77 5 0.0 1.0 0.00 0.00 0.00 40 1011.9
20260904223204 77 5 2.0 5.0 0.00 0.00 0.00 42 1012.0
20260904221703 78 5 1.0 2.0 0.00 0.00 0.00 46 1012.3
20260904221204 78 5 0.0 1.0 0.00 0.00 0.00 45 1012.3
20260904220705 79 5 0.0 0.0 0.00 0.00 0.00 45 1012.3
20260904220204 79 5 0.0 3.0 0.00 0.00 0.00 43 1012.3
20260904213704 80 5 0.0 1.0 0.00 0.00 0.00 38 1012.3
20260904211704 79 5 0.0 2.0 0.00 0.00 0.00 35 1012.3
20260904204204 80 5 1.0 3.0 0.00 0.00 0.00 35 1012.4
20260904203704 81 5 2.0 3.0 0.00 0.00 0.00 33 1012.4
20260904203204 81 5 1.0 2.0 0.00 0.00 0.00 32 1012.4
20260904201704 83 5 1.0 2.0 0.00 0.00 0.00 28 1012.4
20260904200703 84 5 2.0 3.0 0.00 0.00 0.00 27 1012.4
20260904200204 84 5 2.0 3.0 0.00 0.00 0.00 26 1012.4
20260904194204 84 5 2.0 3.0 0.00 0.00 0.00 27 1012.3
20260904193704 84 9 1.0 3.0 0.00 0.00 0.00 29 1012.3
20260904193203 84 9 1.0 3.0 0.00 0.00 0.00 32 1012.3
20260904191703 84 9 1.0 3.0 0.00 0.00 0.00 35 1012.3
20260904191203 84 9 1.0 2.0 0.00 0.00 0.00 34 1012.0
20260904190703 84 9 1.0 2.0 0.00 0.00 0.00 35 1012.0
20260904184704 85 9 1.0 2.0 0.00 0.00 0.00 39 1012.0
20260904183703 86 9 0.0 2.0 0.00 0.00 0.00 39 1012.0